Date String (YYYY-MM-DD hh:mm:ss) UTC,Instrument flags,Ambient pressure (hPa),Sample flow (lpm),Bypass flow (lpm),Sample temperature (°C),Ambient temperature (°C),ASC tube jacket temperature (°C),LED temperature (°C),Box temperature (°C),Sample RH (%),Span deviation,Mass concentration (μg/m³),Mass concentration (μg/m³),Mass concentration (μg/m³)
DateTimeUTC,F1_M11,P_M11,Q1_M11,Q2_M11,T1_M11,T2_M11,T3_M11,T4_M11,T5_M11,U1_M11,ZSPAN_M11,X2_M11,X0_M11,X1_M11
2023-03-03 12:00:00,,0814.0,4.99,0.00,22.6,21.2,00.0,31.3,24.3,13.2,-002.0,0009.69,0015.79,0009.10
2023-03-03 12:01:00,,0814.2,5.02,0.00,22.6,21.1,00.0,31.3,24.2,13.3,-002.0,0009.69,0015.90,0009.12
2023-03-03 12:02:00,,0814.0,5.04,0.00,22.6,21.1,00.0,31.3,24.2,13.3,-001.7,0009.71,0016.04,0009.13
2023-03-03 12:03:00,,0813.9,5.01,0.00,22.5,21.0,00.0,31.3,24.2,13.3,-001.8,0009.75,0016.56,0009.13
2023-03-03 12:04:00,,0814.0,4.98,0.00,22.5,21.0,00.0,31.3,24.2,13.3,-001.8,0009.71,0016.66,0009.12
2023-03-03 12:05:00,,0814.0,5.00,0.00,22.5,20.9,00.0,31.3,24.2,13.2,-001.7,0009.64,0016.38,0009.10
2023-03-03 12:06:00,,0814.0,5.03,0.00,22.5,20.9,00.0,31.3,24.2,13.2,-001.4,0009.61,0017.41,0009.07
2023-03-03 12:07:00,,0814.0,5.00,0.00,22.5,20.9,00.0,31.3,24.2,13.2,-001.3,0009.60,0018.48,0009.04
2023-03-03 12:08:00,,0814.0,5.00,0.00,22.5,20.9,00.0,31.3,24.2,13.2,-001.6,0009.59,0018.44,0009.03
2023-03-03 12:09:00,,0814.0,5.01,0.00,22.4,20.8,00.0,31.3,24.1,13.2,-001.7,0009.58,0018.74,0009.05
2023-03-03 12:10:00,,0814.1,5.00,0.00,22.4,20.8,00.0,31.3,24.1,13.3,-001.7,0009.59,0019.55,0009.05
2023-03-03 12:11:00,,0813.9,5.00,0.00,22.4,20.7,00.0,31.2,24.0,13.3,-001.6,0009.56,0020.27,0009.03
2023-03-03 12:12:00,,0814.1,5.00,0.00,22.4,20.6,00.0,31.2,24.0,13.2,-001.6,0009.50,0020.27,0008.98
2023-03-03 12:13:00,,0814.2,5.00,0.00,22.4,20.6,00.0,31.2,24.0,13.2,-001.3,0009.49,0020.67,0008.96
2023-03-03 12:14:00,,0814.2,5.01,0.00,22.3,20.6,00.0,31.2,24.0,13.2,-000.9,0009.43,0020.01,0008.94
2023-03-03 12:15:00,,0814.0,5.01,0.00,22.3,20.9,00.0,31.2,24.0,13.2,-001.0,0009.38,0019.39,0008.89
2023-03-03 12:16:00,,0814.0,5.01,0.00,22.4,22.0,00.0,31.2,24.3,13.3,-000.9,0009.35,0019.12,0008.85
2023-03-03 12:17:00,,0814.0,4.99,0.00,22.5,23.0,00.0,31.2,24.5,13.3,-001.3,0009.30,0018.15,0008.82
2023-03-03 12:18:00,,0814.0,5.00,0.00,22.7,23.1,00.0,31.2,24.6,13.2,-001.3,0009.25,0016.70,0008.80
2023-03-03 12:19:00,,0814.1,5.01,0.00,22.7,22.6,00.0,31.3,24.5,13.2,-001.4,0009.26,0016.74,0008.76
2023-03-03 12:20:00,,0814.2,5.00,0.00,22.7,22.2,00.0,31.3,24.5,13.1,-001.3,0009.26,0016.66,0008.72
2023-03-03 12:21:00,,0813.9,5.00,0.00,22.7,21.9,00.0,31.3,24.4,13.1,-000.9,0009.19,0015.84,0008.67
2023-03-03 12:22:00,,0814.0,5.01,0.00,22.6,21.7,00.0,31.3,24.3,13.1,-000.8,0009.16,0014.83,0008.64
2023-03-03 12:23:00,,0814.0,5.01,0.00,22.6,21.5,00.0,31.3,24.3,13.2,-000.9,0009.22,0014.79,0008.65
2023-03-03 12:24:00,,0814.0,4.99,0.00,22.6,21.4,00.0,31.3,24.3,13.2,-001.0,0009.19,0014.17,0008.62
2023-03-03 12:25:00,,0814.1,5.00,0.00,22.6,21.3,00.0,31.3,24.3,13.2,-001.4,0009.18,0014.08,0008.57
2023-03-03 12:26:00,,0814.0,5.03,0.00,22.6,21.2,00.0,31.3,24.3,13.2,-001.2,0009.20,0014.20,0008.57
2023-03-03 12:27:00,,0814.0,4.98,0.00,22.6,21.1,00.0,31.3,24.3,13.2,-001.3,0009.24,0014.35,0008.59
2023-03-03 12:28:00,,0814.0,4.99,0.00,22.6,21.1,00.0,31.3,24.2,13.2,-000.8,0009.24,0014.46,0008.56
2023-03-03 12:29:00,,0813.8,5.03,0.00,22.5,21.0,00.0,31.3,24.2,13.2,-000.6,0009.27,0015.11,0008.56
2023-03-03 12:30:00,,0814.0,5.01,0.00,22.5,20.9,00.0,31.3,24.2,13.2,-000.6,0009.26,0015.19,0008.57
2023-03-03 12:31:00,,0814.2,5.00,0.00,22.5,20.9,00.0,31.3,24.2,13.2,-000.7,0009.26,0015.53,0008.57
2023-03-03 12:32:00,,0814.2,5.00,0.00,22.5,20.9,00.0,31.3,24.2,13.2,-000.9,0009.29,0015.67,0008.58
2023-03-03 12:33:00,,0814.1,5.00,0.00,22.5,20.9,00.0,31.3,24.1,13.2,-001.0,0009.33,0015.74,0008.59
2023-03-03 12:34:00,,0813.9,5.02,0.00,22.5,20.8,00.0,31.3,24.1,13.3,-001.3,0009.29,0015.61,0008.57
2023-03-03 12:35:00,,0813.9,5.00,0.00,22.4,20.8,00.0,31.2,24.1,13.2,-001.5,0009.31,0015.61,0008.57
2023-03-03 12:36:00,,0813.9,5.01,0.00,22.4,20.7,00.0,31.2,24.1,13.2,-001.5,0009.32,0015.96,0008.59
2023-03-03 12:37:00,,0814.2,5.00,0.00,22.4,20.7,00.0,31.2,24.1,13.2,-001.6,0009.32,0016.11,0008.59
2023-03-03 12:38:00,,0813.9,5.00,0.00,22.4,20.7,00.0,31.2,24.0,13.1,-001.6,0009.28,0015.98,0008.56
2023-03-03 12:39:00,,0813.8,5.00,0.00,22.4,20.7,00.0,31.2,24.0,13.2,-001.7,0009.32,0016.20,0008.57
2023-03-03 12:40:00,,0813.9,5.01,0.00,22.4,21.0,00.0,31.2,24.1,13.2,-002.0,0009.27,0016.97,0008.55
2023-03-03 12:41:00,,0813.9,4.98,0.00,22.5,22.0,00.0,31.2,24.4,13.0,-001.8,0009.20,0017.38,0008.48
2023-03-03 12:42:00,,0813.8,5.00,0.00,22.6,23.0,00.0,31.2,24.6,12.9,-001.9,0009.12,0017.09,0008.42
2023-03-03 12:43:00,,0814.1,4.99,0.00,22.7,23.1,00.0,31.2,24.7,12.6,-001.9,0009.02,0017.01,0008.32
2023-03-03 12:44:00,,0814.3,4.99,0.00,22.7,22.6,00.0,31.3,24.6,12.6,-002.2,0008.91,0016.91,0008.22
2023-03-03 12:45:00,,0814.0,5.01,0.00,22.7,22.2,00.0,31.3,24.5,12.9,-001.8,0008.84,0016.80,0008.17
2023-03-03 12:46:00,,0814.0,4.99,0.00,22.7,21.9,00.0,31.3,24.4,13.0,-001.6,0008.82,0016.68,0008.17
2023-03-03 12:47:00,,0814.2,5.01,0.00,22.7,21.7,00.0,31.3,24.4,12.9,-001.4,0008.81,0016.37,0008.18
2023-03-03 12:48:00,,0814.2,4.99,0.00,22.6,21.5,00.0,31.3,24.3,12.8,-001.6,0008.76,0016.13,0008.17
2023-03-03 12:49:00,,0814.1,5.00,0.00,22.6,21.4,00.0,31.3,24.3,12.2,-001.6,0008.65,0015.75,0008.10
2023-03-03 12:50:00,,0814.0,5.01,0.00,22.6,21.3,00.0,31.3,24.3,12.0,-001.6,0008.48,0015.31,0007.98
2023-03-03 12:51:00,,0814.0,5.01,0.00,22.6,21.2,00.0,31.3,24.3,12.2,-001.2,0008.42,0013.86,0007.91
2023-03-03 12:52:00,,0814.0,5.02,0.00,22.6,21.1,00.0,31.3,24.3,12.5,-001.3,0008.54,0013.36,0008.00
2023-03-03 12:53:00,,0814.0,5.00,0.00,22.6,21.1,00.0,31.3,24.3,12.8,-001.0,0008.64,0013.41,0008.10
2023-03-03 12:54:00,,0813.9,5.01,0.00,22.6,21.0,00.0,31.3,24.2,12.8,-000.6,0008.86,0014.06,0008.31
2023-03-03 12:55:00,,0814.1,5.00,0.00,22.5,21.0,00.0,31.3,24.2,12.0,-000.5,0008.87,0014.09,0008.37
2023-03-03 12:56:00,,0813.9,5.00,0.00,22.5,21.0,00.0,31.3,24.2,11.7,-000.3,0008.76,0013.93,0008.28
2023-03-03 12:57:00,,0814.0,4.99,0.00,22.5,20.9,00.0,31.3,24.2,11.5,-000.4,0008.59,0013.71,0008.12
2023-03-03 12:58:00,,0813.9,5.00,0.00,22.5,20.9,00.0,31.3,24.1,11.4,-000.6,0008.39,0013.53,0007.94
2023-03-03 12:59:00,,0813.9,4.99,0.00,22.5,20.8,00.0,31.3,24.2,11.1,-000.3,0008.09,0013.30,0007.67
